Location: Wald
(31.7579°N, 86.6655°W)
Time: 20:55:23
(UTC+00:00)

NOSS 3-2 (A) - Pass Details

Date: 14 July 2020
Orbit: 798 x 1410 km, 63.4° (Epoch: 12 August)

Event Time Altitude Azimuth Distance (km) Brightness Sun altitude
Exits shadow 09:31:03 22° 245° (WSW) 1,725 4.2 -15.3°
Maximum altitude 09:34:14 44° 305° (NW) 1,184 3.8 -14.8°
Drops below altitude 10° 09:40:03 10° 17° (NNE) 2,675 6.6 -13.8°
Sets 09:42:55 0° 24° (NNE) 3,717 7.7 -13.3°
